EW4941 Weather Reports


time (UTC)temp
C
wind
direction
speed
KPH
gust
KPH
rain 1hr
cm
rain 24hr
cm
rain mn
cm
humidity
%
barometer
mb
20260508033613 7 0 8.0 17.7 0.00 0.28 0.15 52 1007.4
20260508033113 7 0 6.4 14.5 0.00 0.30 0.15 52 1007.5
20260508032614 7 0 4.8 8.0 0.00 0.36 0.15 51 1007.5
20260508032114 7 0 4.8 8.0 0.00 0.38 0.15 49 1007.5
20260508031614 7 0 3.2 8.0 0.00 0.38 0.15 49 1007.6
20260508031113 7 0 3.2 9.7 0.00 0.41 0.15 49 1007.5
20260508030614 7 0 6.4 12.9 0.00 0.43 0.15 49 1007.5
20260508030113 7 0 6.4 12.9 0.00 0.48 0.15 49 1007.4
20260508025845 7 0 8.0 17.7 0.00 0.53 0.15 49 1007.2
20260508025342 7 0 8.0 19.3 0.00 0.53 0.15 49 1007.2
20260508024613 7 0 9.7 19.3 0.00 0.56 0.15 49 1007.0
20260508024112 7 0 11.3 19.3 0.00 0.56 0.15 48 1006.9
20260508023846 7 0 9.7 22.5 0.00 0.56 0.15 48 1006.9
20260508023111 7 0 8.0 22.5 0.00 0.56 0.15 49 1007.0
20260508022612 7 0 6.4 16.1 0.00 0.56 0.15 48 1006.9
20260508022111 7 0 4.8 9.7 0.00 0.56 0.15 48 1006.9
20260508021611 7 0 6.4 9.7 0.00 0.56 0.15 47 1006.9
20260508021344 8 0 6.4 14.5 0.00 0.58 0.15 48 1006.9
20260508020608 8 0 8.0 17.7 0.00 0.58 0.15 47 1006.9
20260508020108 8 0 12.9 20.9 0.00 0.58 0.15 47 1006.7
20260508015610 8 0 12.9 20.9 0.00 0.58 0.15 47 1006.6
20260508015341 8 0 11.3 20.9 0.00 0.61 0.15 47 1006.6
20260508014607 8 0 9.7 20.9 0.00 0.61 0.15 46 1006.5
20260508014107 8 0 8.0 19.3 0.00 0.64 0.15 47 1006.6
20260508013608 8 0 6.4 12.9 0.00 0.66 0.15 46 1006.7
20260508013107 8 0 6.4 16.1 0.00 0.66 0.15 45 1006.7
20260508012606 8 0 6.4 16.1 0.00 0.66 0.15 45 1006.6
20260508012108 8 0 8.0 16.1 0.00 0.66 0.15 44 1006.6
20260508011606 8 0 8.0 19.3 0.00 0.66 0.15 44 1006.4
20260508011107 8 0 8.0 19.3 0.00 0.66 0.15 44 1006.4
20260508010608 8 0 9.7 17.7 0.00 0.66 0.15 44 1006.3
20260508010108 8 0 9.7 20.9 0.00 0.66 0.15 45 1006.3
20260508005607 8 0 8.0 20.9 0.00 0.66 0.15 46 1006.3
20260508005108 8 0 4.8 12.9 0.00 0.66 0.15 45 1006.3
20260508004607 9 0 6.4 12.9 0.00 0.66 0.15 44 1006.2
20260508004107 9 0 6.4 14.5 0.00 0.66 0.15 44 1006.3
20260508003839 9 0 6.4 20.9 0.00 0.66 0.15 44 1006.2
20260508003107 10 0 6.4 20.9 0.00 0.66 0.15 44 1006.2
20260508002607 10 0 6.4 19.3 0.00 0.66 0.15 43 1006.1
20260508002105 10 0 6.4 19.3 0.00 0.66 0.15 44 1006.0
20260508001607 10 0 6.4 14.5 0.00 0.66 0.15 43 1005.9
20260508001104 10 0 8.0 14.5 0.00 0.66 0.15 43 1005.8
20260508000607 10 0 6.4 14.5 0.00 0.66 0.15 43 1005.7
20260508000104 10 0 6.4 16.1 0.00 0.66 0.15 43 1005.7
20260507235606 10 0 8.0 16.1 0.00 0.66 0.15 44 1005.6
20260507235105 10 0 6.4 14.5 0.00 0.66 0.15 42 1005.5
20260507234838 10 0 8.0 17.7 0.00 0.66 0.15 42 1005.5
20260507234106 11 0 8.0 17.7 0.00 0.66 0.15 42 1005.4
20260507233836 11 0 9.7 22.5 0.00 0.66 0.15 42 1005.3
20260507233104 11 0 9.7 22.5 0.00 0.66 0.15 41 1005.3
20260507232604 11 0 9.7 24.1 0.00 0.66 0.15 41 1005.3
20260507232335 11 0 9.7 24.1 0.00 0.66 0.15 41 1005.1
20260507231833 11 0 9.7 20.9 0.00 0.66 0.15 42 1005.0
20260507231104 11 0 11.3 20.9 0.00 0.66 0.15 41 1004.9
20260507230602 12 0 9.7 19.3 0.00 0.66 0.15 40 1004.8
20260507230333 12 0 11.3 24.1 0.00 0.66 0.15 40 1004.8
20260507225605 12 0 11.3 24.1 0.00 0.66 0.15 39 1004.7
20260507225103 12 0 9.7 20.9 0.00 0.66 0.15 38 1004.6
20260507224602 12 0 11.3 24.1 0.00 0.69 0.15 39 1004.6
20260507224103 12 0 11.3 24.1 0.00 0.69 0.15 38 1004.5
20260507223603 12 0 11.3 22.5 0.00 0.71 0.15 38 1004.5
20260507223108 13 0 8.0 16.1 0.00 0.81 0.15 37 1004.4
20260507223102 12 0 11.3 22.5 0.00 0.74 0.15 37 1004.5
20260507222103 13 0 8.0 17.7 0.00 0.81 0.15 37 1004.3
20260507221600 13 0 11.3 24.1 0.00 0.81 0.15 38 1004.3
20260507221056 13 0 11.3 24.1 0.00 0.81 0.15 36 1004.2
20260507220558 13 0 11.3 24.1 0.00 0.84 0.15 36 1004.2
20260507220327 13 0 14.5 33.8 0.00 0.84 0.15 37 1004.2
20260507215556 13 0 16.1 33.8 0.00 0.86 0.15 37 1004.1
20260507215054 13 0 16.1 25.7 0.00 0.86 0.15 36 1004.1
20260507214554 13 0 14.5 25.7 0.00 0.97 0.15 36 1004.1
20260507214055 14 0 12.9 24.1 0.00 1.17 0.15 37 1004.1
20260507213554 14 0 11.3 24.1 0.00 1.32 0.15 37 1004.0
20260507213054 14 0 12.9 22.5 0.00 1.37 0.15 38 1004.0
20260507212555 14 0 16.1 27.4 0.00 1.47 0.15 38 1003.9
20260507212055 14 0 14.5 27.4 0.00 1.52 0.15 37 1004.0
20260507211556 15 0 12.9 25.7 0.00 1.57 0.15 37 1003.8
20260507211054 15 0 12.9 27.4 0.00 1.63 0.15 40 1003.8
20260507210552 15 0 12.9 27.4 0.00 1.68 0.15 41 1003.8
20260507210050 15 0 12.9 32.2 0.00 1.75 0.15 39 1003.7
20260507205550 15 0 12.9 32.2 0.00 1.78 0.15 37 1003.6
20260507205051 14 0 12.9 22.5 0.00 1.78 0.15 39 1003.5
20260507204551 14 0 11.3 24.1 0.00 1.80 0.15 38 1003.5
20260507204049 14 0 12.9 29.0 0.00 1.83 0.15 37 1003.4
20260507203548 15 0 12.9 29.0 0.00 1.83 0.15 39 1003.4
20260507203048 15 0 12.9 29.0 0.00 1.85 0.15 34 1003.4
20260507202549 15 0 14.5 29.0 0.00 1.88 0.15 35 1003.4
20260507202048 15 0 14.5 24.1 0.00 1.88 0.15 36 1003.4
20260507201550 15 0 14.5 24.1 0.00 1.88 0.15 36 1003.4
20260507201048 15 0 14.5 30.6 0.00 1.91 0.15 35 1003.4
20260507200549 16 0 14.5 30.6 0.00 1.91 0.15 34 1003.4
20260507200048 16 0 14.5 33.8 0.00 1.93 0.15 35 1003.3
20260507195546 16 0 14.5 33.8 0.00 1.93 0.15 34 1003.2
20260507195316 15 0 14.5 27.4 0.00 1.93 0.15 36 1003.3
20260507194552 15 0 11.3 22.5 0.00 1.93 0.15 43 1003.3
20260507194547 15 0 12.9 27.4 0.00 1.93 0.15 38 1003.4
20260507193546 15 0 11.3 19.3 0.00 1.96 0.15 40 1003.4
20260507193047 15 0 9.7 27.4 0.00 1.96 0.15 38 1003.4
20260507192543 15 0 12.9 27.4 0.00 1.98 0.15 37 1003.4
20260507192044 16 0 12.9 27.4 0.00 1.98 0.15 37 1003.5
20260507191544 16 0 11.3 25.7 0.00 1.98 0.15 38 1003.5
20260507191044 16 0 12.9 24.1 0.00 1.98 0.15 43 1003.6
20260507190544 16 0 12.9 25.7 0.00 2.01 0.15 39 1003.6
20260507190044 16 0 11.3 25.7 0.00 2.03 0.15 40 1003.5
20260507185544 15 0 12.9 22.5 0.00 2.03 0.15 41 1003.6
20260507185044 15 0 12.9 22.5 0.00 2.11 0.15 43 1003.7
20260507184544 15 0 16.1 29.0 0.00 2.16 0.15 42 1003.7
20260507184045 15 0 17.7 30.6 0.00 2.18 0.15 46 1003.7
20260507183815 15 0 16.1 30.6 0.00 2.21 0.15 45 1003.8
20260507183045 15 0 12.9 25.7 0.00 2.24 0.15 49 1003.6
20260507182814 15 0 11.3 25.7 0.00 2.24 0.15 49 1003.7
20260507182045 14 0 11.3 25.7 0.00 2.24 0.15 53 1003.7
20260507181544 14 0 12.9 25.7 0.00 2.26 0.15 51 1003.7
20260507181044 14 0 14.5 25.7 0.00 2.26 0.15 52 1003.7
20260507180544 14 0 16.1 25.7 0.00 2.26 0.15 51 1003.8
20260507180043 14 0 14.5 24.1 0.00 2.26 0.15 51 1003.8
20260507175545 15 0 11.3 24.1 0.00 2.26 0.15 51 1003.8
20260507175045 14 0 8.0 19.3 0.00 2.26 0.15 54 1003.9
20260507174544 14 0 8.0 19.3 0.00 2.26 0.15 54 1003.8
20260507174041 14 0 11.3 20.9 0.00 2.26 0.15 55 1003.9
20260507173814 14 0 12.9 22.5 0.00 2.26 0.15 53 1003.9
20260507173312 15 0 12.9 22.5 0.00 2.26 0.15 51 1003.9
20260507172543 15 0 12.9 25.7 0.00 2.26 0.15 50 1003.8
20260507172043 15 0 12.9 25.7 0.00 2.26 0.15 48 1003.8
20260507171543 15 0 12.9 30.6 0.00 2.26 0.15 50 1003.9
20260507171048 15 0 9.7 20.9 0.00 2.26 0.15 52 1003.9
20260507171043 15 0 11.3 30.6 0.00 2.26 0.15 52 1003.9
20260507170315 15 0 9.7 20.9 0.00 2.26 0.15 52 1004.0
20260507165544 14 0 6.4 14.5 0.00 2.26 0.15 52 1004.1
20260507165042 14 0 8.0 19.3 0.00 2.26 0.15 48 1004.2
20260507164541 14 0 11.3 24.1 0.00 2.26 0.15 52 1004.2
20260507164043 14 0 12.9 24.1 0.00 2.26 0.15 50 1004.4
20260507163542 15 0 8.0 24.1 0.00 2.26 0.15 50 1004.2
20260507163043 15 0 8.0 16.1 0.00 2.26 0.15 52 1004.3
20260507162542 15 0 6.4 16.1 0.00 2.26 0.15 49 1004.3
20260507162042 15 0 6.4 16.1 0.00 2.26 0.15 50 1004.3
20260507161541 15 0 8.0 19.3 0.00 2.26 0.15 49 1004.4
20260507161041 15 0 9.7 19.3 0.00 2.26 0.15 51 1004.5
20260507160542 15 0 8.0 20.9 0.00 2.26 0.15 49 1004.4
20260507160314 15 0 6.4 20.9 0.00 2.26 0.15 53 1004.5
20260507155547 14 0 4.8 12.9 0.00 2.26 0.15 56 1004.7
20260507155542 15 0 4.8 14.5 0.00 2.26 0.15 52 1004.6
20260507154814 14 0 6.4 12.9 0.00 2.26 0.15 51 1004.8
20260507154041 15 0 8.0 16.1 0.00 2.26 0.15 53 1004.7
20260507153544 15 0 9.7 17.7 0.00 2.26 0.15 56 1004.8
20260507153313 15 0 8.0 17.7 0.00 2.26 0.15 57 1004.8
20260507152542 15 0 6.4 16.1 0.00 2.26 0.15 54 1004.9
20260507152041 15 0 6.4 16.1 0.00 2.26 0.15 56 1004.8
20260507151544 14 0 6.4 16.1 0.00 2.26 0.15 57 1004.8
20260507151039 14 0 6.4 16.1 0.00 2.26 0.15 55 1004.9
20260507150539 15 0 8.0 16.1 0.00 2.26 0.15 54 1004.9
20260507150037 15 0 8.0 16.1 0.00 2.26 0.15 54 1005.0
20260507145542 14 0 8.0 19.3 0.00 2.26 0.15 55 1004.9
20260507145035 14 0 6.4 19.3 0.00 2.26 0.15 55 1005.0
20260507144534 14 0 8.0 17.7 0.00 2.26 0.15 59 1005.1
20260507144306 13 0 8.0 17.7 0.00 2.26 0.15 59 1005.1
20260507143531 13 0 6.4 17.7 0.00 2.26 0.15 57 1005.2
20260507143032 13 0 9.7 17.7 0.00 2.26 0.15 61 1005.2
20260507142529 13 0 9.7 22.5 0.00 2.26 0.15 59 1005.3
20260507142300 13 0 9.7 22.5 0.00 2.26 0.15 58 1005.3
20260507141531 13 0 8.0 17.7 0.00 2.26 0.15 58 1005.5
20260507141030 13 0 8.0 19.3 0.00 2.26 0.15 62 1005.5
20260507140531 13 0 11.3 27.4 0.00 2.26 0.15 59 1005.5
20260507140034 13 0 11.3 24.1 0.00 2.26 0.15 60 1005.6
20260507140030 13 0 12.9 27.4 0.00 2.26 0.15 59 1005.5
20260507135027 12 0 9.7 19.3 0.00 2.26 0.15 62 1005.5
20260507134528 12 0 11.3 20.9 0.00 2.26 0.15 61 1005.6
20260507134027 12 0 11.3 20.9 0.00 2.26 0.15 62 1005.7
20260507133528 12 0 11.3 22.5 0.00 2.26 0.15 64 1005.7
20260507133028 12 0 9.7 22.5 0.00 2.26 0.15 64 1005.7
20260507132527 12 0 8.0 22.5 0.00 2.26 0.15 66 1005.7
20260507132026 12 0 8.0 22.5 0.00 2.26 0.15 64 1005.7
20260507131524 12 0 6.4 16.1 0.00 2.26 0.15 67 1005.7
20260507131026 11 0 6.4 16.1 0.00 2.26 0.15 67 1005.6
20260507130523 11 0 6.4 14.5 0.00 2.26 0.15 70 1005.7
20260507130024 11 0 8.0 20.9 0.00 2.26 0.15 70 1005.7
20260507125524 11 0 9.7 20.9 0.00 2.26 0.15 67 1005.8
20260507125028 11 0 9.7 19.3 0.00 2.26 0.15 71 1005.9
20260507125023 11 0 8.0 16.1 0.00 2.26 0.15 71 1005.8
20260507124024 10 0 8.0 19.3 0.00 2.26 0.15 70 1005.9
20260507123523 10 0 8.0 19.3 0.00 2.26 0.15 72 1006.0
20260507123024 10 0 9.7 17.7 0.00 2.26 0.15 72 1005.9
20260507122522 10 0 8.0 22.5 0.00 2.26 0.15 72 1006.0
20260507122022 10 0 8.0 22.5 0.00 2.26 0.15 73 1005.9
20260507121521 10 0 8.0 17.7 0.00 2.26 0.15 74 1006.0
20260507121022 10 0 8.0 17.7 0.00 2.26 0.15 72 1006.0
20260507120522 10 0 8.0 20.9 0.00 2.26 0.15 74 1005.9
20260507120021 10 0 11.3 22.5 0.00 2.26 0.15 73 1005.9
20260507115523 9 0 11.3 22.5 0.00 2.26 0.15 74 1006.0
20260507115021 9 0 11.3 20.9 0.00 2.26 0.15 74 1006.0
20260507114754 9 0 9.7 20.9 0.00 2.26 0.15 74 1006.1
20260507114022 9 0 9.7 17.7 0.00 2.26 0.15 74 1006.3
20260507113521 9 0 8.0 17.7 0.00 2.26 0.15 75 1006.4
20260507113023 9 0 6.4 14.5 0.00 2.26 0.15 76 1006.3
20260507112523 8 0 6.4 16.1 0.00 2.26 0.15 78 1006.3
20260507112020 8 0 8.0 16.1 0.00 2.26 0.15 77 1006.3
20260507111752 8 0 6.4 16.1 0.00 2.26 0.15 79 1006.1
20260507111020 8 0 4.8 8.0 0.00 2.26 0.15 80 1006.3
20260507110519 8 0 4.8 8.0 0.00 2.26 0.15 82 1006.6
20260507110020 7 0 3.2 8.0 0.00 2.26 0.15 84 1006.6
20260507105520 7 0 3.2 8.0 0.00 2.26 0.15 85 1006.5
20260507105017 7 0 4.8 9.7 0.00 2.26 0.15 84 1006.4
20260507104517 7 0 3.2 9.7 0.00 2.26 0.15 85 1006.3
20260507104018 7 0 1.6 8.0 0.00 2.26 0.15 87 1006.3
20260507103517 6 0 1.6 4.8 0.00 2.26 0.15 88 1006.2
20260507103017 6 0 0.0 3.2 0.00 2.26 0.15 89 1006.3
20260507102751 6 0 1.6 6.4 0.00 2.26 0.15 90 1006.4
20260507102016 6 0 1.6 6.4 0.00 2.26 0.15 89 1006.3
20260507101514 6 0 3.2 8.0 0.00 2.26 0.15 89 1006.3
20260507101014 5 0 3.2 8.0 0.00 2.26 0.15 89 1006.3
20260507100512 6 0 0.0 4.8 0.00 2.26 0.15 90 1006.1
20260507100012 6 0 0.0 3.2 0.00 2.26 0.15 89 1006.1
20260507095509 6 0 0.0 6.4 0.00 2.26 0.15 90 1005.9
20260507095009 6 0 0.0 6.4 0.00 2.26 0.15 90 1005.8
20260507094508 6 0 0.0 0.0 0.00 2.26 0.15 90 1005.4
20260507094007 6 0 0.0 0.0 0.00 2.26 0.15 90 1005.5
20260507093507 6 0 0.0 0.0 0.00 2.26 0.15 90 1005.8
20260507093004 6 0 0.0 0.0 0.00 2.26 0.15 90 1005.8
20260507092506 6 0 0.0 0.0 0.00 2.26 0.15 89 1005.9
20260507092237 6 0 0.0 4.8 0.00 2.26 0.15 89 1005.8
20260507091733 6 0 1.6 4.8 0.00 2.26 0.15 89 1005.9
20260507091004 6 0 3.2 6.4 0.00 2.26 0.15 88 1005.7
20260507090735 6 0 3.2 6.4 0.00 2.26 0.15 88 1005.7
20260507090006 6 0 4.8 9.7 0.00 2.26 0.15 88 1005.9
20260507085504 6 0 4.8 14.5 0.00 2.26 0.15 88 1006.1
20260507085003 6 0 4.8 14.5 0.00 2.26 0.15 88 1006.1
20260507084502 6 0 4.8 9.7 0.00 2.26 0.15 88 1006.0
20260507084233 6 0 4.8 9.7 0.00 2.26 0.15 88 1006.0
20260507083502 6 0 4.8 8.0 0.00 2.26 0.15 88 1006.0
20260507083001 6 0 4.8 12.9 0.00 2.26 0.15 87 1005.9
20260507082500 6 0 4.8 12.9 0.00 2.26 0.15 87 1005.7
20260507082002 7 0 4.8 12.9 0.00 2.26 0.15 87 1005.6
20260507081500 7 0 6.4 12.9 0.00 2.26 0.15 87 1005.4
20260507081001 7 0 8.0 19.3 0.00 2.26 0.15 87 1005.5
20260507080500 7 0 8.0 19.3 0.00 2.26 0.15 87 1005.4
20260507080001 7 0 8.0 19.3 0.00 2.26 0.15 87 1005.5
20260507075500 7 0 11.3 19.3 0.00 2.26 0.15 88 1005.7
20260507074956 7 0 9.7 17.7 0.00 2.26 0.15 88 1005.8
20260507074457 7 0 6.4 17.7 0.00 2.26 0.15 88 1005.7
20260507073956 7 0 6.4 16.1 0.00 2.26 0.15 89 1005.7
20260507073455 7 0 8.0 16.1 0.00 2.26 0.15 89 1005.6
20260507072955 7 0 6.4 14.5 0.00 2.26 0.15 90 1005.9
20260507072454 7 0 4.8 12.9 0.00 2.26 0.15 90 1005.6
20260507071956 7 0 4.8 12.9 0.00 2.26 0.15 91 1005.7
20260507071454 7 0 4.8 12.9 0.00 2.26 0.15 91 1005.8
20260507070955 7 0 4.8 9.7 0.00 2.26 0.15 91 1005.2
20260507070725 7 0 4.8 14.5 0.00 2.26 0.15 92 1005.2
20260507070000 7 0 4.8 14.5 0.00 2.26 0.15 92 1005.6
20260507065954 7 0 4.8 14.5 0.00 2.26 0.15 92 1005.2
20260507064956 7 0 3.2 14.5 0.00 2.26 0.15 92 1005.3
20260507064455 7 0 1.6 8.0 0.00 2.26 0.15 92 1005.1
20260507063954 7 0 0.0 3.2 0.00 2.26 0.15 92 1005.0
20260507063453 7 0 1.6 6.4 0.00 2.26 0.15 92 1004.9
20260507062952 7 0 3.2 8.0 0.00 2.26 0.15 92 1004.9
20260507062725 8 0 4.8 9.7 0.00 2.26 0.15 92 1004.8
20260507061952 8 0 6.4 14.5 0.00 2.26 0.15 92 1004.8
20260507061450 8 0 6.4 14.5 0.00 2.26 0.15 92 1004.8
20260507060950 8 0 4.8 8.0 0.00 2.26 0.15 93 1004.8
20260507060451 8 0 4.8 8.0 0.00 2.26 0.15 93 1004.7
20260507055948 8 0 4.8 12.9 0.00 2.26 0.15 93 1004.8
20260507055449 8 0 4.8 12.9 0.03 2.26 0.15 93 1004.8
20260507054948 8 0 4.8 9.7 0.05 2.26 0.15 93 1004.8
20260507054448 8 0 3.2 8.0 0.05 2.26 0.15 93 1004.6
20260507053946 8 0 3.2 8.0 0.05 2.26 0.15 93 1004.2
20260507053447 8 0 4.8 14.5 0.05 2.26 0.15 93 1004.3
20260507052946 8 0 6.4 14.5 0.08 2.26 0.15 93 1004.3
20260507052716 8 0 6.4 16.1 0.10 2.26 0.15 93 1004.6
20260507051946 8 0 6.4 16.1 0.15 2.26 0.15 93 1004.8
20260507051446 8 0 6.4 17.7 0.15 2.26 0.15 93 1004.7
20260507050944 8 0 8.0 17.7 0.15 2.26 0.15 93 1004.8
20260507050445 8 0 6.4 16.1 0.15 2.26 0.15 93 1004.9
20260507045944 8 0 6.4 14.5 0.15 2.26 0.15 93 1004.8
20260507045444 8 0 6.4 14.5 0.13 2.21 0.10 93 1004.9
20260507045217 8 0 8.0 12.9 0.15 2.21 0.10 93 1005.1
20260507044444 8 0 6.4 12.9 0.15 2.21 0.10 93 1005.1
20260507043944 8 0 6.4 12.9 0.20 2.21 0.10 94 1004.9
20260507043444 9 0 8.0 14.5 0.23 2.21 0.10 94 1005.0
20260507043214 9 0 6.4 14.5 0.23 2.18 0.10 94 1004.8
20260507042445 9 0 6.4 12.9 0.25 2.16 0.05 94 1005.0
20260507041943 9 0 8.0 12.9 0.23 2.11 0.00 94 1005.2
20260507041444 9 0 6.4 14.5 0.25 2.11 0.00 94 1005.2
20260507040945 9 0 6.4 14.5 0.25 2.11 0.00 95 1004.8
20260507040447 10 0 6.4 16.1 0.33 2.11 2.11 94 1004.7
20260507040442 9 0 6.4 16.1 0.30 2.11 0.00 95 1004.8
20260507035713 10 0 8.0 14.5 0.36 2.08 2.08 94 1004.7
20260507034941 10 0 8.0 14.5 0.33 2.06 2.06 95 1004.7
20260507034441 10 0 8.0 16.1 0.36 2.06 2.06 95 1004.6
20260507033943 10 0 8.0 16.1 0.30 2.01 2.03 95 1004.6